星链-5049 (STARLINK-5049 )

导读

STARLINK-5049是美国SpaceX公司星链(Starlink)卫星互联网项目中的一颗卫星,于2023年7月7日发射升空。星链计划旨在通过构建大规模低地球轨道卫星星座,为全球偏远地区、基础设施薄弱区域提供高速低延迟宽带互联网服务。作为星座组网的组成部分,STARLINK-5049加入了已数千颗规模的星链网络,助力实现全球覆盖的卫星互联网接入,推动全球连通性建设。

基本信息
目录编号:
57246
目录名称:
STARLINK-5049
国际标识:
2023-094AE
轨道中心:
EARTH
卫星名称:
星链-5049
卫星全名:
星链-5049 (STARLINK-5049 )
卫星状态:
在轨 (已飞行1155 天)
发射日期:
2023-07-07 UTC
国别 :
美国 (US)
星等 :
--
轨道信息
数据来源 国际轨道数据 AOE轨道数据
星历时间 2026-09-03T05:01:36+0800
1天前
查看轨道信息
2026-08-28T22:00:00+0800
6天前
查看轨道信息
半长轴 6861.189km 6861.228km
偏心率 0.0001311 0.0001259
轨道倾角 43.001° 43.002°
近地点辐角 245.198° 228.786°
升交点赤经 98.778° 128.673°
平近点角 114.873° 150.664°
近地点 482.152km 482.227km
远地点 483.952km 483.955km
周期 94.267分钟 94.268分钟
每日圈数 15.275791 15.275662
详细信息
固有亮度:
5
最大亮度:
2.4
卫星平台:
Starlink v1.5
覆盖范围:
全球
运营商:
太空探索技术公司
运营商所在国:
美国
制造商(研发单位):
太空探索技术公司
制造商所在国:
美国
使用方式:
暂无
卫星简介
星链(Starlink)计划是由太空探索技术公司(SpaceX)提出的一个巨型低轨卫星互联网星座项目,计划在2019年至2024年间在太空搭建由约1.2万颗卫星组成的“星链”网络,其中1584颗将部署在地球上空550千米处的近地轨道,并从2020年开始工作。该卫星仍在工作。
2D轨道图
3D轨道图
轨道高度分析图
轨道倾角分析图
轨道综合分析图
查看轨道综合分析图
交会数据列表
事件ID 空间交会对象 最接近时刻(TCA) 交会距离 交会风险概率(CRP) 交会风险指数(CRI) 操作
CDM_260905-025205-724606-385321
2026-09-05T
02:52:14+0000
0.196 km
中距离
5.713724E-4 高风险 0.9
CDM_260904-212205-724606-385321
2026-09-04T
21:22:42+0000
0.371 km
远距离
2.142269E-4 高风险 0.82
CDM_260903-164905-505405-724624
2026-09-03T
16:49:14+0000
1.626 km
极远距离
4.982066E-6 低风险 0.49
CDM_260903-073603-331805-724627
2026-09-03T
07:36:57+0000
2.143 km
极远距离
2.088377E-6 低风险 0.41
CDM_260905-001405-319705-724621
2026-09-05T
00:14:38+0000
2.637 km
极远距离
1.538411E-6 低风险 0.39
CDM_260904-225605-724606-385321
2026-09-04T
22:56:51+0000
2.078 km
极远距离
1.350673E-6 低风险 0.38
CDM_260904-194805-724606-385321
2026-09-04T
19:48:32+0000
2.235 km
极远距离
1.156679E-6 低风险 0.36
CDM_260905-042605-724606-385321
2026-09-05T
04:26:23+0000
2.251 km
极远距离
1.141756E-6 低风险 0.36
CDM_260905-011805-724606-385321
2026-09-05T
01:18:04+0000
2.319 km
极远距离
1.077847E-6 低风险 0.36